Find PRAETORIAN SDA_511

NORAD ID: 100069 Int'l Des: 2026-163L Country: USA operational

Aktuelle Ansicht

3D-Globus wird geladen...

About PRAETORIAN SDA_511

PRAETORIAN SDA_511 (NORAD 100069) is a satellite of USA.

Nächste Überflüge

Passes for default location (London). Set your location on the main map for personalized predictions.

Höhenverlauf

Loading altitude history...

Zweizeiliger Elementsatz

1 A0069U 26206.56426967 .00000125 00000-0 98002-4 0 9997
2 A0069 81.4830 301.7544 0014258 185.1121 174.9894 13.85674680 1218
Epoch: 25. Juli 2026 • Age: 11 hours

Aktueller Status

Höhe 937.1 km
Apogäum / Perigäum N/A
Geschwindigkeit 7.39 km/s
Subsatellitenpunkt 22.26°N, 163.63°E
Typ other

Most Searched